#timestamp,LO_Frequency,Hit 
1497571215.2,286047005.9,N
1497571235.1,286047004.9,N
1497571236.0,286047004.9,N
1497571255.8,286047006.9,N
1497571275.6,286047005.2,N
1497571295.5,286047007.0,N
1497571315.3,286047010.3,Y
1497571335.1,286047005.7,N
1497571355.9,286047004.8,N
1497571375.7,286047007.2,N
1497571395.5,286047007.1,N
1497571415.4,286047009.2,Y
1497571435.2,286047005.2,N
1497571455.0,286047004.0,N
1497571455.9,286047004.0,N
1497571475.8,286047000.3,N
1497571495.6,286047000.4,N
1497571515.4,286047001.5,N
1497571535.3,286046999.7,N
1497571555.1,286046998.1,N
1497571556.0,286046998.1,N
1497571575.8,286046998.5,N
1497571595.7,286046999.9,N
1497571615.5,286047001.9,N
1497571635.3,286047000.4,N
1497571655.1,286047002.4,N
1497571675.9,286047004.1,N
1497571695.7,286047002.2,N
1497571715.5,286046999.9,N
1497571735.4,286047001.9,N
1497571755.2,286047001.7,N
1497571775.0,286047001.6,N
1497571775.9,286047001.6,N
1497571795.8,286047004.8,N
1497571815.6,286047001.5,N
1497571835.4,286047000.2,N
1497571855.3,286047002.8,N
1497571875.1,286047002.5,N
1497571876.0,286047002.5,N
1497571895.8,286047005.9,N
1497571915.9,286047003.3,N
1497571935.7,286047004.5,N
1497571955.6,286047005.7,N
1497571975.4,286047007.6,N
1497571995.2,286047006.4,N
1497572015.0,286047008.5,N
1497572015.9,286047008.5,N
1497572035.8,286047009.6,Y
1497572055.6,286047007.3,N
1497572075.4,286047006.7,N
1497572095.3,286047006.5,N
1497572115.1,286047007.9,N
1497572135.8,286047007.3,N
1497572155.7,286047005.7,N
1497572175.5,286047003.0,N
1497572195.3,286047003.9,N
1497572215.2,286047007.6,N
1497572235.9,286047006.3,N
1497572255.7,286047009.0,Y
1497572275.6,286047005.8,N
1497572295.4,286047003.3,N
1497572315.2,286047004.1,N
1497572335.1,286047003.0,N
1497572336.0,286047003.0,N
1497572355.8,286047002.1,N
1497572375.6,286047001.9,N
1497572395.5,286047002.6,N
1497572415.3,286046999.9,N
1497572435.1,286047004.2,N
1497572455.8,286047001.6,N
1497572475.7,286047000.0,N
1497572495.5,286047001.4,N
1497572515.3,286047005.9,N
1497572535.2,286047005.9,N
1497572555.9,286047004.8,N
1497572575.7,286047006.5,N
1497572595.6,286047006.8,N
1497572615.4,286047007.6,N
1497572635.2,286047007.1,N
1497572655.1,286047007.0,N
1497572656.0,286047007.0,N
1497572675.8,286047009.0,Y
1497572695.6,286047003.2,N
1497572715.5,286047001.6,N
1497572735.3,286047002.8,N
1497572755.1,286047001.5,N
1497572775.9,286047000.0,N
1497572795.7,286047002.1,N
1497572815.5,286047001.9,N
1497572835.3,286047003.2,N
1497572855.2,286047005.7,N
1497572875.0,286047005.4,N
1497572875.9,286047005.4,N
1497572895.7,286047001.4,N
1497572915.6,286047001.8,N
1497572935.4,286047005.6,N
1497572955.2,286047004.9,N
1497572975.1,286047005.9,N
1497572976.0,286047005.9,N
1497572995.8,286047004.0,N
1497573015.6,286047004.3,N
1497573035.5,286047003.7,N
1497573055.3,286047003.2,N
1497573075.1,286047003.3,N
1497573095.9,286047005.0,N
1497573115.7,286047005.2,N
1497573135.5,286047007.1,N
1497573155.3,286047008.5,N
1497573175.2,286047008.7,N
1497573195.0,286047006.6,N
1497573195.9,286047006.6,N
1497573215.7,286047008.8,N
1497573235.6,286047006.1,N
1497573255.4,286047004.7,N
1497573275.2,286047003.5,N
1497573295.1,286047006.0,N
1497573296.0,286047006.0,N
1497573315.8,286047005.0,N
1497573335.6,286047004.7,N
1497573355.5,286047003.5,N
1497573375.3,286047007.5,N
1497573395.1,286047007.5,N
1497573415.9,286047005.9,N
1497573435.7,286047007.0,N
1497573455.5,286047010.5,Y
1497573475.4,286047003.2,N
1497573495.2,286047001.7,N
1497573515.0,286047000.1,N
1497573515.9,286047000.1,N
1497573535.8,286047004.0,N
1497573555.6,286047003.3,N
1497573575.4,286047006.9,N
1497573595.2,286047005.2,N
1497573615.1,286047003.8,N
1497573616.0,286047003.8,N
1497573635.8,286047004.3,N
1497573655.6,286047003.5,N
1497573675.5,286046999.8,N
1497573695.3,286047002.7,N
1497573715.1,286047005.5,N
1497573735.9,286047005.1,N
1497573755.7,286047005.4,N
1497573775.5,286047003.3,N
1497573795.4,286047006.6,N
1497573815.2,286047007.1,N
1497573835.0,286047001.7,N
1497573835.9,286047001.7,N
1497573855.8,286047004.6,N
1497573875.6,286047008.9,Y
1497573895.4,286047002.8,N
1497573915.3,286046997.2,N
1497573935.1,286046996.7,N
1497573936.0,286046996.7,N
1497573955.8,286046998.8,N
1497573975.7,286046998.9,N
1497573995.5,286046996.5,N
1497574015.3,286046999.1,N
1497574035.1,286047000.7,N
1497574055.9,286047000.5,N
1497574075.7,286046998.6,N
1497574095.5,286047002.4,N
1497574115.4,286047001.8,N
1497574135.2,286047002.2,N
1497574155.0,286046998.6,N
1497574155.9,286046998.6,N
1497574175.8,286046999.3,N
1497574195.6,286046998.3,N
1497574215.4,286046997.3,N
1497574235.3,286046997.1,N
1497574255.1,286047001.7,N
1497574256.0,286047001.7,N
1497574275.8,286047002.8,N
1497574295.7,286047002.6,N
1497574315.5,286046999.0,N
1497574335.3,286046996.9,N
1497574355.2,286046999.0,N
1497574375.9,286047002.7,N
1497574395.7,286047000.3,N
1497574415.6,286047000.2,N
1497574435.4,286047002.2,N
1497574455.2,286047002.5,N
1497574475.0,286047004.0,N
1497574475.9,286047004.0,N
1497574495.8,286047003.3,N
1497574515.6,286047003.9,N
1497574535.4,286047005.2,N
1497574555.3,286047008.3,N
1497574575.1,286047007.0,N
1497574576.0,286047007.0,N
1497574595.8,286047002.1,N
1497574615.7,286047004.0,N
1497574635.5,286046999.8,N
1497574655.3,286046998.3,N
1497574675.2,286047002.2,N
1497574695.9,286047003.3,N
1497574715.7,286047007.1,N
1497574735.5,286047003.2,N
1497574755.4,286047000.4,N
1497574775.2,286046998.8,N
1497574795.0,286046999.2,N
1497574795.9,286046999.2,N
